User: anonymous   Login
Location: Atbuku
(36.4936°N, 30.4362°E)
Time: 04:06:16
(UTC+00:00)
Language:

Cosmos 1953 Rocket - Orbit

View from above orbital plane
View from above orbital plane
View from above satellite
View from above satellite

Ground track
Ground track

The orbit is defined by the following mean orbital elements,

1 19211U          26042.20248632 +.00000000 +00000-0 +58202-4 0 00009
2 19211  82.5268 123.2835 0022108 129.9498 230.3665 14.85356645    08
Epoch (UTC): 11 February 2026 04:51:34
Eccentricity: 0.0022108
inclination: 82.5268°
perigee height: 597 km
apogee height: 628 km
right ascension of ascending node: 123.2835°
argument of perigee: 129.9498°
revolutions per day: 14.85356645
mean anomaly at epoch: 230.3665°

The dashed part of the orbit path shows where the satellite is in the earth's shadow,  

DLR